Regional Weather Roundup
Issued by NWS Sterling, VA

Home | Current Version | Previous Version | Graphics & Text | Print | Product List | Glossary On
Versions: 1 2 3 4 5 6 7 8 9 10 11 12 13 14 15 16 17 18 19 20 21 22 23 24 25 26 27 28 29 30 31 32 33 34 35 36 37 38 39 40 41 42 43 44 45 46 47 48 49 50
000
ASUS41 KLWX 222210
RWRLWX

REGIONAL WEATHER ROUNDUP
NATIONAL WEATHER SERVICE BALTIMORE MD/WASHINGTON DC
600 PM EDT MON SEP 22 2014

Note: "FAIR" indicates few or no clouds below 12,000 feet
with no significant weather and/or obstructions to visibility.
 TC=TEMPERATURE CELSIUS

 * =Non NWS site. Station does not report precipitation (e.g. rain,
    snow, etc.), thunder, or fog.

DCZ001-MDZ009-015-VAZ040>042-051-053>054-222300-
WASHINGTON METRO

CITY           SKY/WX    TMP DP  RH WIND       PRES   REMARKS
WASHINGTON NAT PTSUNNY   72  43  35 NW15      30.07R
DULLES         PTSUNNY   67  44  43 N16       30.07R
ANDREWS AFB    MOSUNNY   69  45  42 NW13G22   30.07R
QUANTICO       MOSUNNY   71  44  37 N9        30.08R
COLLEGE PARK*  MOSUNNY   70  45  40 N10G20    30.07R
LEESBURG*      SUNNY     68  46  45 N12G17    30.09R
MANASSAS*      MOSUNNY   70  45  40 NW9       30.08R
GAITHERSBURG*  SUNNY     64  43  45 NW7       30.12R

$$

MDZ006>007-011-014-222300-
BALTIMORE METRO

CITY           SKY/WX    TMP DP  RH WIND       PRES   REMARKS
BWI AIRPORT    PTSUNNY   68  44  42 W15G23    30.06R
MD SCIENCE CTR   N/A     69  42  37 MISG      30.06R
MARTIN STATE   MOSUNNY   70  45  40 MISG      30.06R
ANNAPOLIS      MOSUNNY   69  47  45 MISG      30.06R
FORT MEADE*    MOSUNNY   64  45  48 NW8G18    30.09R

$$

MDZ012-015-019>023-222300-
MARYLAND EASTERN SHORE

CITY           SKY/WX    TMP DP  RH WIND       PRES   REMARKS
OCEAN CITY     SUNNY     71  49  45 NW8       30.04R
SALISBURY      CLOUDY    72  51  47 NW6       30.04R
BAY BRIDGE AP*   N/A     70  43  37 W13       30.05R
CAMBRIDGE*     PTSUNNY   72  50  46 NW5       30.05R
EASTON*        PTSUNNY   72  48  43 NW9       30.09R

$$

MDZ017>025-222300-
SOUTHERN MARYLAND

CITY           SKY/WX    TMP DP  RH WIND       PRES   REMARKS
PATUXENT RIVER MOSUNNY   72  44  36 N13       30.06R
ST INIGOES     SUNNY     73  45  36 VRB3      30.05R
LEONARDTOWN*   SUNNY     70  45  40 NW6       30.08R

$$

MDZ003>005-222300-
NORTH CENTRAL MARYLAND

CITY           SKY/WX    TMP DP  RH WIND       PRES   REMARKS
FREDERICK*     SUNNY     68  45  42 N10       30.12R
HAGERSTOWN APT SUNNY     63  42  46 NW14      30.10S
WESTMINSTER*   SUNNY     66  41  39 NW8       30.08R

$$

MDZ501>502-222300-
WESTERN MARYLAND

CITY           SKY/WX    TMP DP  RH WIND       PRES   REMARKS
OAKLAND*       CLOUDY    50  43  76 NW8       30.17S
CUMBERLAND*    MOSUNNY   66  39  37 NW7       30.17R

$$

VAZ025>031-222300-
SHENANDOAH VALLEY

CITY           SKY/WX    TMP DP  RH WIND       PRES   REMARKS
WINCHESTER*    SUNNY     64  41  42 W15G21    30.10R
STAUNTON*      MOSUNNY   70  39  32 N7        30.11R

$$

WVZ021-048>050-054>055-222300-
EASTERN WEST VIRGINIA PANHANDLE

CITY           SKY/WX    TMP DP  RH WIND       PRES   REMARKS
MARTINSBURG    SUNNY     68  39  34 NW14G21   30.10R
PETERSBURG*    SUNNY     63  39  41 NW12G17   30.15R

$$

VAZ036>039-050-222300-
CENTRAL FOOTHILLS

CITY           SKY/WX    TMP DP  RH WIND       PRES   REMARKS
CHARLOTTESVILL MOSUNNY   70  46  42 N5        30.07R
ORANGE*        MOSUNNY   70  45  40 NW7       30.09R

$$

VAZ055>057-222300-
NORTH AND CENTRAL PIEDMONT

CITY           SKY/WX    TMP DP  RH WIND       PRES   REMARKS
FREDERICKSBRG* MOSUNNY   72  47  40 NW10G17   30.07R
STAFFORD*      MOSUNNY   70  46  43 NW6       30.11R

$$

NCZ024-NYZ072-PAZ021-071-VAZ022-071-222300-
OTHER REGIONAL OBSERVATIONS

CITY           SKY/WX    TMP DP  RH WIND       PRES   REMARKS
NEW YORK CITY  CLEAR     65  42  43 NW8       30.02R
PHILADELPHIA   PTSUNNY   69  46  43 NW14      30.03R
PITTSBURGH     CLOUDY    57  41  55 NW10      30.18R
ROANOKE        PTSUNNY   69  49  48 NW10      30.12R
RICHMOND       PTSUNNY   76  44  32 N9        30.05R
RALEIGH        PTSUNNY   71  54  54 CALM      30.06S

$$

ANZ530>537-222300-
MARINE OBSERVATIONS

STATION/POSITION TIME  TEMP    WIND        PRES
                       AIR SEA DIR/SP/G
                 (UTC) (F)     (DEG/KT/KT) (MB)
THOMAS PT LIGHT  2200   68 73  310/ 14/ 16 1018.9R
BALT KEY BRIDGE  2200   69     290/ 18/ 21 1017.5R
COVE POINT       2200   69     350/ 13/ 17 1017.6R
LEWISETTA        2200   72 74  320/  9/ 12 1017.5R
SOLOMONS ISLAND  2200      76                N/A
PINEY POINT      2200          330/ 14/ 16   N/A

$$



USA.gov is the U.S. government's official web portal to all federal, state and local government web resources and services.